Regional Weather Roundup
Issued by NWS

Home | Current Version | Previous Version | Text Only | Print | Product List | Glossary On
Versions: 1 2 3 4 5 6 7 8 9 10 11 12 13 14 15 16 17 18 19 20 21 22 23 24 25 26 27 28 29 30 31 32 33 34 35 36 37 38 39 40 41 42 43 44 45 46 47 48 49 50
000
ASUS42 KFFC 271503
RWRGA
WEATHER ROUNDUP FOR GEORGIA
NATIONAL WEATHER SERVICE PEACHTREE CITY GA
1100 AM EDT THU APR 27 2017

NOTE: "FAIR" INDICATES FEW OR NO CLOUDS BELOW 12,000 FEET WITH NO
SIGNIFICANT WEATHER AND/OR OBSTRUCTIONS TO VISIBILITY.

* = USE WITH CAUTION. THE STATIONS MARKED WITH AN ASTERISK MAY NOT
REPORT WEATHER SUCH AS PRECIPITATION, FOG, OR THUNDER AND ARE NOT
QUALITY CONTROLLED BY NWS.

THE REMARK "TC" DENOTES TEMPERATURE READING IN DEGREES CELSIUS.

GAZ001>058-271600-
NORTH GEORGIA

CITY           SKY/WX    TMP DP  RH WIND       PRES   REMARKS
ATLANTA        CLOUDY    70  66  87 S12       29.81R
ATHENS         CLOUDY    69  65  86 VRB3      29.85R
CHAMBLEE       CLOUDY    69  64  84 S9        29.80S
PEACHTREE CITY CLOUDY    70  67  90 VRB6      29.81R
ROME           CLOUDY    70  67  90 SE3       29.76R
WEST ATLANTA   CLOUDY    71  67  87 S9        29.79S
CARTERSVILLE   CLOUDY    71  66  84 S8        29.78R


CITY           SKY/WX    TMP DP  RH WIND       PRES   REMARKS
DALTON*        DRIZZLE   64  64 100 CALM      29.76R
LAWRENCEVILLE* CLOUDY    66  64  94 S7        29.83S FOG
MARIETTA       CLOUDY    70  65  85 SE9       29.80S
KENNESAW*      CLOUDY    70  64  83 S9        29.77R
CANTON*        CLOUDY    66  63  88 SE5       29.82R
$$

GAZ059>098-102>109-271600-
CENTRAL GEORGIA

CITY           SKY/WX    TMP DP  RH WIND       PRES   REMARKS
AUGUSTA-BUSH   CLOUDY    75  67  76 S9        29.88R
AUGUSTA-DANIEL CLOUDY    72  62  71 S6        29.89R
COLUMBUS       CLOUDY    75  67  76 S13       29.80F THUNDER
MACON          PTSUNNY   77  66  68 S13G23    29.83S
ROBINS AFB     PTSUNNY   79  67  66 SW16G22   29.82R


CITY           SKY/WX    TMP DP  RH WIND       PRES   REMARKS
LAGRANGE*      TSTM      72  72 100 S12G18    29.80R
SYLVANIA*      PTSUNNY  N/A N/A N/A S9        29.91F
MILLEDGEVILLE* PTSUNNY   75  70  83 S5        29.85R
$$

GAZ099>101-110>166-271600-
SOUTH GEORGIA

CITY           SKY/WX    TMP DP  RH WIND       PRES   REMARKS
SAVANNAH       CLOUDY    80  63  55 S12       29.93S
VALDOSTA       SUNNY     81  66  60 S16       29.91S
ALMA           MOSUNNY   80  65  59 S10       29.91F
ST SIMONS      SUNNY     79  67  66 S13G22    29.94S
FT STEWART     PTSUNNY   78  63  58 S8        29.90S
ALBANY         PTSUNNY   80  67  64 SW15G23   29.89S
HUNTER AFB     MOSUNNY   79  70  75 S9        29.90F
MOODY AFB      MOSUNNY   82  65  55 S17G24    29.89F
BRUNSWICK      MOSUNNY   82  63  51 S15G22    29.94S


CITY           SKY/WX    TMP DP  RH WIND       PRES   REMARKS
BAINBRIDGE*    MOSUNNY   81  68  65 SW17      29.88R
MOULTRIE*      MOSUNNY   81  68  65 S10G17    29.90S
VIDALIA*       SUNNY     79  64  61 S17       29.89F
WAYCROSS*      MOSUNNY   83  69  62 SW13      29.92S
DOUGLAS*       MOSUNNY   77  64  65 SW10      29.92F
$$



USA.gov is the U.S. government's official web portal to all federal, state and local government web resources and services.